| time (UTC) | temp C | wind direction | speed KPH | gust KPH | rain 1hr cm | rain 24hr cm | rain mn cm | humidity % | barometer mb |
| 20260504190024 | 14 | 334 | 3.2 | 8.0 | 0.00 | 0.56 | 0.00 | 44 | 1010.2 |
| 20260504183026 | 13 | 324 | 3.2 | 11.3 | 0.00 | 0.56 | 0.00 | 47 | 1010.3 |
| 20260504181522 | 13 | 24 | 4.8 | 12.9 | 0.00 | 0.56 | 0.00 | 47 | 1010.4 |
| 20260504180022 | 13 | 344 | 1.6 | 12.9 | 0.00 | 0.56 | 0.00 | 47 | 1010.5 |
| 20260504173024 | 15 | 17 | 1.6 | 14.5 | 0.00 | 0.56 | 0.00 | 44 | 1010.7 |
| 20260504171537 | 15 | 329 | 4.8 | 14.5 | 0.00 | 0.56 | 0.00 | 44 | 1010.8 |
| 20260504081531 | 8 | 245 | 1.6 | 6.4 | 0.00 | 0.64 | 0.00 | 70 | 1005.9 |
| 20260504044532 | 8 | 267 | 1.6 | 4.8 | 0.00 | 0.64 | 0.64 | 74 | 1007.2 |
| 20260504043026 | 8 | 255 | 0.0 | 3.2 | 0.00 | 0.64 | 0.64 | 76 | 1007.3 |
| 20260504041530 | 8 | 284 | 0.0 | 0.0 | 0.00 | 0.64 | 0.64 | 81 | 1007.5 |
| 20260504040028 | 8 | 284 | 0.0 | 0.0 | 0.00 | 0.64 | 0.64 | 83 | 1007.5 |
| 20260504034528 | 8 | 284 | 0.0 | 0.0 | 0.00 | 0.64 | 0.64 | 83 | 1007.6 |
| 20260504033027 | 8 | 284 | 1.6 | 1.6 | 0.00 | 0.64 | 0.64 | 83 | 1007.7 |
| 20260504031527 | 9 | 256 | 0.0 | 3.2 | 0.00 | 0.64 | 0.64 | 80 | 1007.7 |
| 20260504030036 | 9 | 257 | 0.0 | 1.6 | 0.00 | 0.64 | 0.64 | 78 | 1007.7 |
| 20260504024528 | 9 | 192 | 0.0 | 0.0 | 0.00 | 0.64 | 0.64 | 79 | 1007.8 |
| 20260504023028 | 10 | 192 | 0.0 | 0.0 | 0.00 | 0.64 | 0.64 | 78 | 1007.7 |
| 20260504021533 | 10 | 192 | 0.0 | 0.0 | 0.00 | 0.64 | 0.64 | 77 | 1007.8 |
| 20260504020026 | 10 | 192 | 0.0 | 0.0 | 0.00 | 0.64 | 0.64 | 76 | 1007.9 |
| 20260504014528 | 11 | 192 | 0.0 | 0.0 | 0.00 | 0.64 | 0.64 | 77 | 1008.0 |
| 20260504013028 | 11 | 192 | 0.0 | 0.0 | 0.00 | 0.64 | 0.64 | 73 | 1008.2 |
| 20260504011527 | 12 | 192 | 0.0 | 3.2 | 0.00 | 0.64 | 0.64 | 72 | 1008.6 |
| 20260504010026 | 12 | 196 | 0.0 | 3.2 | 0.00 | 0.64 | 0.64 | 69 | 1008.8 |
| 20260504004528 | 13 | 198 | 0.0 | 4.8 | 0.00 | 0.64 | 0.64 | 69 | 1009.0 |
| 20260504003026 | 14 | 218 | 1.6 | 3.2 | 0.00 | 0.64 | 0.64 | 65 | 1009.2 |
| 20260504001508 | 15 | 221 | 0.0 | 3.2 | 0.00 | 0.64 | 0.64 | 65 | 1009.4 |
| 20260504000007 | 15 | 227 | 0.0 | 4.8 | 0.00 | 0.64 | 0.64 | 65 | 1009.7 |
| 20260503234514 | 15 | 198 | 1.6 | 3.2 | 0.00 | 0.64 | 0.64 | 73 | 1010.0 |
| 20260503233008 | 14 | 209 | 0.0 | 3.2 | 0.00 | 0.64 | 0.64 | 74 | 1010.3 |
| 20260503231508 | 13 | 217 | 0.0 | 3.2 | 0.00 | 0.64 | 0.64 | 82 | 1010.6 |
| 20260503230012 | 12 | 220 | 0.0 | 3.2 | 0.25 | 0.64 | 0.64 | 84 | 1010.7 |
| 20260503224514 | 11 | 248 | 0.0 | 3.2 | 0.43 | 0.64 | 0.64 | 85 | 1010.7 |
| 20260503223012 | 10 | 294 | 1.6 | 12.9 | 0.48 | 0.64 | 0.64 | 88 | 1011.2 |
| 20260503221508 | 9 | 213 | 0.0 | 4.8 | 0.48 | 0.64 | 0.64 | 86 | 1011.6 |
| 20260503220029 | 10 | 285 | 6.4 | 12.9 | 0.25 | 0.38 | 0.38 | 79 | 1012.6 |
| 20260503214510 | 13 | 310 | 8.0 | 22.5 | 0.10 | 0.20 | 0.20 | 69 | 1012.6 |
| 20260503213013 | 14 | 286 | 1.6 | 3.2 | 0.05 | 0.15 | 0.15 | 70 | 1012.0 |
| 20260503211512 | 16 | 299 | 0.0 | 3.2 | 0.05 | 0.15 | 0.15 | 65 | 1011.4 |
| 20260503210012 | 16 | 343 | 0.0 | 3.2 | 0.03 | 0.13 | 0.13 | 57 | 1011.6 |
| 20260503204510 | 16 | 165 | 0.0 | 3.2 | 0.00 | 0.10 | 0.10 | 52 | 1012.1 |
| 20260503203020 | 17 | 69 | 1.6 | 8.0 | 0.00 | 0.10 | 0.10 | 47 | 1012.0 |
| 20260503201515 | 17 | 103 | 1.6 | 11.3 | 0.03 | 0.10 | 0.10 | 46 | 1012.4 |
| 20260503200028 | 17 | 83 | 4.8 | 9.7 | 0.03 | 0.10 | 0.10 | 46 | 1012.4 |
| 20260503194530 | 17 | 159 | 1.6 | 9.7 | 0.03 | 0.10 | 0.10 | 48 | 1012.6 |
| 20260503193034 | 15 | 286 | 1.6 | 4.8 | 0.03 | 0.10 | 0.10 | 63 | 1013.0 |
| 20260503191526 | 16 | 236 | 1.6 | 3.2 | 0.00 | 0.08 | 0.08 | 45 | 1013.3 |